SP9INZ-13 Weather Reports


Display with metric or nautical units.
time (UTC)temp
F
wind
direction
speed
MPH
gust
MPH
rain 1hr
in
rain 24hr
in
rain mn
in
humidity
%
barometer
mb
20260506070250 64 0.0 0.0 0.00 0.00 0.00 64 1006.1
20260506061457 64 0.0 0.0 0.00 0.00 0.00 63 1005.9
20260506051104 63 0.0 0.0 0.00 0.00 0.00 65 1006.2
20260506043909 62 0.0 0.0 0.00 0.00 0.00 65 1006.5
20260506042312 62 0.0 0.0 0.00 0.00 0.00 64 1006.6
20260506040713 62 0.0 0.0 0.00 0.00 0.00 63 1006.7
20260506035116 62 0.0 0.0 0.00 0.00 0.00 62 1006.9
20260506033519 63 0.0 0.0 0.00 0.00 0.00 61 1006.9
20260506031919 63 0.0 0.0 0.00 0.00 0.00 59 1007.3
20260506030322 63 0.0 0.0 0.00 0.00 0.00 58 1007.3
20260506024724 63 0.0 0.0 0.00 0.00 0.00 58 1007.4
20260506023125 62 0.0 0.0 0.00 0.00 0.00 58 1007.7
20260506021527 63 0.0 0.0 0.00 0.00 0.00 57 1007.9
20260506015929 63 0.0 0.0 0.00 0.00 0.00 55 1007.9
20260506014332 64 0.0 0.0 0.00 0.00 0.00 54 1008.0
20260506012733 64 0.0 0.0 0.00 0.00 0.00 52 1008.1
20260506011135 65 0.0 0.0 0.00 0.00 0.00 51 1008.4
20260506005538 65 0.0 0.0 0.00 0.00 0.00 49 1008.3
20260506003940 66 0.0 0.0 0.00 0.00 0.00 48 1008.3
20260506002342 66 0.0 0.0 0.00 0.00 0.00 48 1008.4
20260506000743 67 0.0 0.0 0.00 0.00 0.00 46 1008.3
20260505235145 68 0.0 0.0 0.00 0.00 0.00 46 1008.5
20260505233547 68 0.0 0.0 0.00 0.00 0.00 45 1008.4
20260505231949 68 0.0 0.0 0.00 0.00 0.00 46 1008.7
20260505230351 69 0.0 0.0 0.00 0.00 0.00 45 1008.5
20260505224753 70 0.0 0.0 0.00 0.00 0.00 43 1008.6
20260505223155 70 0.0 0.0 0.00 0.00 0.00 43 1008.8
20260505221557 69 0.0 0.0 0.00 0.00 0.00 44 1009.0
20260505215959 69 0.0 0.0 0.00 0.00 0.00 43 1009.4
20260505214402 69 0.0 0.0 0.00 0.00 0.00 43 1009.5
20260505212803 69 0.0 0.0 0.00 0.00 0.00 40 1009.6
20260505211205 70 0.0 0.0 0.00 0.00 0.00 38 1009.6
20260505205607 70 0.0 0.0 0.00 0.00 0.00 37 1009.7
20260505204009 71 0.0 0.0 0.00 0.00 0.00 36 1009.5
20260505202411 72 0.0 0.0 0.00 0.00 0.00 36 1009.4
20260505201042 72 0.0 0.0 0.00 0.00 0.00 36 1009.5
20260505200813 72 0.0 0.0 0.00 0.00 0.00 36 1009.5
20260505195215 72 0.0 0.0 0.00 0.00 0.00 36 1009.4
20260505193617 73 0.0 0.0 0.00 0.00 0.00 35 1009.4
20260505192019 73 0.0 0.0 0.00 0.00 0.00 33 1009.4
20260505190421 74 0.0 0.0 0.00 0.00 0.00 33 1009.4
20260505184823 74 0.0 0.0 0.00 0.00 0.00 32 1009.3
20260505183225 75 0.0 0.0 0.00 0.00 0.00 31 1009.3
20260505181627 75 0.0 0.0 0.00 0.00 0.00 29 1009.3
20260505180029 76 0.0 0.0 0.00 0.00 0.00 26 1009.2
20260505174431 77 0.0 0.0 0.00 0.00 0.00 24 1009.1
20260505172833 80 0.0 0.0 0.00 0.00 0.00 21 1008.7
20260505171235 79 0.0 0.0 0.00 0.00 0.00 20 1008.9
20260505165639 84 0.0 0.0 0.00 0.00 0.00 18 1007.7
20260505164041 84 0.0 0.0 0.00 0.00 0.00 18 1007.8
20260505162442 84 0.0 0.0 0.00 0.00 0.00 18 1007.9
20260505160843 81 0.0 0.0 0.00 0.00 0.00 18 1009.1
20260505152049 84 0.0 0.0 0.00 0.00 0.00 15 1008.5
20260505150451 84 0.0 0.0 0.00 0.00 0.00 15 1008.5
20260505124110 83 0.0 0.0 0.00 0.00 0.00 19 1009.3
20260505122512 82 0.0 0.0 0.00 0.00 0.00 22 1009.4
20260505120912 80 0.0 0.0 0.00 0.00 0.00 22 1010.1
20260505115315 79 0.0 0.0 0.00 0.00 0.00 22 1010.3
20260505113716 80 0.0 0.0 0.00 0.00 0.00 22 1010.2
20260505112213 79 0.0 0.0 0.00 0.00 0.00 21 1010.8
20260505112120 79 0.0 0.0 0.00 0.00 0.00 21 1010.8
20260505110521 82 0.0 0.0 0.00 0.00 0.00 19 1010.1
20260505102135 80 0.0 0.0 0.00 0.00 0.00 26 1009.8
20260505101727 80 0.0 0.0 0.00 0.00 0.00 26 1009.8
20260505100130 79 0.0 0.0 0.00 0.00 0.00 27 1010.3
20260505094532 79 0.0 0.0 0.00 0.00 0.00 28 1010.4
20260505093215 77 0.0 0.0 0.00 0.00 0.00 29 1010.9
20260505092934 77 0.0 0.0 0.00 0.00 0.00 29 1010.9
20260505091338 77 0.0 0.0 0.00 0.00 0.00 30 1010.9
20260505085737 75 0.0 0.0 0.00 0.00 0.00 31 1011.5
20260505084140 76 0.0 0.0 0.00 0.00 0.00 31 1011.7
20260505082544 74 0.0 0.0 0.00 0.00 0.00 31 1012.1
20260505080944 74 0.0 0.0 0.00 0.00 0.00 31 1012.0
20260505075345 74 0.0 0.0 0.00 0.00 0.00 32 1012.3
20260505073747 72 0.0 0.0 0.00 0.00 0.00 33 1013.0
20260505072149 73 0.0 0.0 0.00 0.00 0.00 33 1012.7
20260505070552 71 0.0 0.0 0.00 0.00 0.00 35 1013.3